User: anonymous   Login
Location: Courçay
(47.2523°N, 0.8761°E)
Time: 22:21:54
(UTC+00:00)
Language:

ATLAS 5 CENTAUR R/B - Orbit

View from above orbital plane
View from above orbital plane
View from above satellite
View from above satellite

Ground track
Ground track

The orbit is defined by the following mean orbital elements,

1 31702U          26020.26889500 +.00000000 +00000-0 +15442-2 0 00002
2 31702  63.3141 328.3063 0502931  41.4790 322.3336 14.49577554    06
Epoch (UTC): 20 January 2026 06:27:12
Eccentricity: 0.0502931
inclination: 63.3141°
perigee height: 370 km
apogee height: 1084 km
right ascension of ascending node: 328.3063°
argument of perigee: 41.4790°
revolutions per day: 14.49577554
mean anomaly at epoch: 322.3336°

The dashed part of the orbit path shows where the satellite is in the earth's shadow,  

DLR